Home > Weather > Kolkata > Past weeks

Flag for India Weather for the Past 2 Weeks in Kolkata, West Bengal, India

Now
90 °F

Scattered clouds.


Feels Like: 93 °F
Forecast: 80 / 95 °F
Wind: 8 mph from East

Location: Calcutta / Dum Dum

Current Time: May 4, 2016 at 4:05:54 PM

Latest Report: May 4, 2016 at 3:30 PM


Visibility: 2 mi

Pressure: 29.65 "Hg

Humidity: 49%

Dew Point: 68 °F

Location of KolkataLocation

Historic Weather in Kolkata — Graph

°F

Kolkata Temperature Yesterday

Maximum temperature yesterday: 99 °F (at 1:30 PM)
Minimum temperature yesterday: 79 °F (at 11:30 PM)
Average temperature yesterday: 90 °F

High & Low Weather Summary for the Past Weeks

 TemperatureHumidityPressure
High108 °F (Apr 24, 3:00 PM)94% (May 3, 6:30 AM)29.83 "Hg (May 3, 6:30 AM)
Low77 °F (May 4, 12:30 AM)18% (Apr 24, 3:00 PM)29.42 "Hg (Apr 23, 4:30 PM)
Average90 °F67%29.63 "Hg
* Reported Apr 19 2:30 PM — May 4 2:30 PM, Kolkata, Weather by CustomWeather, © 2016

Note: Actual official high and low records may vary slightly from our data, if they occured in-between our weather recording intervals... More about our weather records

Advertising

Kolkata Weather History for the Previous 24 Hours

Scroll right to see more
 ConditionsComfort  
Time TempWeatherWind HumidityBarometerVisibility
2:30 PM
Wed, May 4
90 °FScattered clouds.8 mph49%29.71 "Hg2 mi
1:30 PM91 °FScattered clouds.10 mph46%29.74 "Hg2 mi
1:00 PM91 °FScattered clouds.8 mph44%29.74 "Hg2 mi
12:30 PM91 °FScattered clouds.12 mph44%29.74 "Hg2 mi
12:00 PM91 °FScattered clouds.10 mph44%29.77 "Hg2 mi
11:30 AM90 °FScattered clouds.13 mph46%29.77 "Hg2 mi
10:30 AM86 °FScattered clouds.13 mph52%29.80 "Hg2 mi
10:00 AM84 °FScattered clouds.12 mph55%29.83 "Hg2 mi
9:30 AM82 °FScattered clouds.9 mph62%29.83 "Hg2 mi
9:00 AM82 °FScattered clouds.7 mph62%29.83 "Hg2 mi
8:30 AM82 °FScattered clouds.9 mph62%29.80 "Hg2 mi
8:00 AM82 °FScattered clouds.7 mph62%29.80 "Hg2 mi
7:30 AM82 °FScattered clouds.7 mph58%29.77 "Hg2 mi
7:00 AM82 °FScattered clouds.6 mph58%29.71 "Hg2 mi
6:30 AM81 °FScattered clouds.9 mph62%29.68 "Hg2 mi
6:00 AM81 °FScattered clouds.6 mph62%29.65 "Hg2 mi
5:30 AM79 °FHaze.8 mph65%29.62 "Hg2 mi
5:00 AM79 °FHaze.10 mph65%29.62 "Hg2 mi
4:30 AM79 °FHaze.5 mph70%29.62 "Hg2 mi
3:30 AM79 °FPassing clouds.7 mph70%29.62 "Hg2 mi
3:00 AM81 °FPassing clouds.5 mph66%29.65 "Hg2 mi
2:30 AM81 °FPassing clouds.9 mph66%29.62 "Hg2 mi
2:00 AM79 °FThunderstorms. Partly cloudy.12 mph70%29.62 "Hg2 mi
1:30 AM77 °FThunderstorms. Mostly cloudy.15 mph79%29.65 "HgN/A
12:30 AM77 °FThunderstorms. Mostly cloudy.15 mph79%29.83 "Hg1 mi
12:00 AM79 °FThunderstorms. Partly cloudy.22 mph79%29.80 "Hg1 mi
11:30 PM
Tue, May 3
79 °FThunderstorms. Partly cloudy.12 mph79%29.77 "Hg1 mi
11:00 PM82 °FThunderstorms. Partly cloudy.10 mph84%29.77 "Hg1 mi
10:30 PM86 °FThunderstorms. Partly cloudy.21 mph75%29.77 "Hg1 mi
10:00 PM86 °FPassing clouds.9 mph79%29.74 "Hg2 mi
9:30 PM86 °FPassing clouds.10 mph79%29.74 "Hg2 mi
9:00 PM88 °FPassing clouds.10 mph75%29.71 "Hg2 mi
8:30 PM88 °FPassing clouds.10 mph75%29.68 "Hg2 mi
8:00 PM90 °FPassing clouds.13 mph71%29.68 "Hg2 mi
7:30 PM90 °FPassing clouds.12 mph71%29.65 "Hg2 mi
7:00 PM91 °FPassing clouds.13 mph67%29.65 "Hg2 mi
6:30 PM91 °FScattered clouds.13 mph63%29.62 "Hg2 mi
6:00 PM93 °FScattered clouds.13 mph59%29.62 "Hg2 mi
5:00 PM95 °FScattered clouds.10 mph60%29.62 "Hg2 mi
4:30 PM95 °FScattered clouds.9 mph56%29.62 "Hg2 mi
4:00 PM95 °FScattered clouds.9 mph56%29.62 "Hg2 mi
Weather by CustomWeather, © 2016

See weather overviewHow to use our weather pages